• In Österreich
  • Länderverzeichnis
  • Für 7 Tage
  • Wassertemperatur
  • Satellitenkarten
  • Wetterkarte
  • News
  • Widgets
  • user-avatar
    Anmelden

    Stündliche Wetter Shrewsbury

    Heute, 19 September, Mittwoch

    Zeit Temperatur Niederschläge Wind Luftdruck Luftfeuchtigkeit
    00:00 +14°C° 0 mm 4 m/S 750 mmHg 93%
    01:00 +14°C° 0 mm 4 m/S 750 mmHg 93%
    02:00 +14°C° 0 mm 4 m/S 750 mmHg 94%
    03:00 +14°C° 0 mm 5 m/S 750 mmHg 95%
    04:00 +14°C° 0 mm 5 m/S 750 mmHg 93%
    05:00 +14°C° 0 mm 6 m/S 749 mmHg 92%
    06:00 +14°C° 0 mm 6 m/S 749 mmHg 91%
    07:00 +15°C° 0.1 mm 7 m/S 749 mmHg 88%
    08:00 +15°C° 0.1 mm 8 m/S 749 mmHg 86%
    09:00 +16°C° 0.1 mm 10 m/S 748 mmHg 83%
    10:00 +16°C° 0.1 mm 10 m/S 748 mmHg 82%
    11:00 +17°C° 0.1 mm 10 m/S 748 mmHg 82%
    12:00 +17°C° 0.1 mm 10 m/S 748 mmHg 81%
    13:00 +16°C° 0.1 mm 10 m/S 749 mmHg 77%
    14:00 +16°C° 0.1 mm 10 m/S 749 mmHg 74%
    15:00 +16°C° 0.1 mm 9 m/S 750 mmHg 70%
    16:00 +15°C° 0 mm 8 m/S 750 mmHg 70%
    17:00 +14°C° 0 mm 7 m/S 751 mmHg 70%
    18:00 +13°C° 0 mm 5 m/S 752 mmHg 70%
    19:00 +12°C° 0 mm 5 m/S 752 mmHg 71%
    20:00 +12°C° 0 mm 5 m/S 753 mmHg 73%
    21:00 +10°C° 0 mm 5 m/S 753 mmHg 74%
    22:00 +11°C° 0.1 mm 4 m/S 753 mmHg 78%
    23:00 +11°C° 0.1 mm 4 m/S 753 mmHg 81%

    Morgen, 20 September, Donnerstag

    Zeit Temperatur Niederschläge Wind Luftdruck Luftfeuchtigkeit
    00:00 +11°C° 0.1 mm 3 m/S 753 mmHg 85%
    01:00 +11°C° 1 mm 3 m/S 753 mmHg 88%
    02:00 +12°C° 1 mm 2 m/S 752 mmHg 91%
    03:00 +11°C° 1 mm 1 m/S 752 mmHg 94%
    04:00 +12°C° 0.5 mm 1 m/S 752 mmHg 94%
    05:00 +12°C° 0.5 mm 1 m/S 752 mmHg 94%
    06:00 +12°C° 0.5 mm 1 m/S 751 mmHg 95%
    07:00 +12°C° 1.1 mm 1 m/S 751 mmHg 94%
    08:00 +12°C° 1.1 mm 1 m/S 751 mmHg 94%
    09:00 +12°C° 1.1 mm 1 m/S 751 mmHg 93%
    10:00 +13°C° 0.6 mm 2 m/S 750 mmHg 93%
    11:00 +14°C° 0.6 mm 2 m/S 750 mmHg 92%
    12:00 +14°C° 0.6 mm 2 m/S 749 mmHg 92%
    13:00 +14°C° 2.4 mm 3 m/S 748 mmHg 93%
    14:00 +15°C° 2.4 mm 4 m/S 747 mmHg 94%
    15:00 +15°C° 2.4 mm 6 m/S 746 mmHg 95%
    16:00 +16°C° 2.8 mm 7 m/S 745 mmHg 93%
    17:00 +16°C° 2.8 mm 8 m/S 743 mmHg 92%
    18:00 +17°C° 2.8 mm 9 m/S 742 mmHg 91%
    19:00 +17°C° 1.7 mm 9 m/S 741 mmHg 91%
    20:00 +16°C° 1.7 mm 8 m/S 740 mmHg 92%
    21:00 +16°C° 1.7 mm 8 m/S 740 mmHg 92%
    22:00 +15°C° 0.9 mm 9 m/S 740 mmHg 90%
    23:00 +13°C° 0.9 mm 9 m/S 740 mmHg 89%

    übermorgen, 21 September, Freitag

    Zeit Temperatur Niederschläge Wind Luftdruck Luftfeuchtigkeit
    00:00 +11°C° 0.9 mm 9 m/S 740 mmHg 87%
    01:00 +10°C° 0.1 mm 9 m/S 742 mmHg 86%
    02:00 +9°C° 0.1 mm 8 m/S 743 mmHg 85%
    03:00 +6°C° 0.1 mm 8 m/S 745 mmHg 84%
    04:00 +6°C° 0 mm 8 m/S 745 mmHg 83%
    05:00 +6°C° 0 mm 7 m/S 746 mmHg 82%
    06:00 +6°C° 0 mm 7 m/S 747 mmHg 81%
    07:00 +7°C° 0.2 mm 8 m/S 747 mmHg 79%
    08:00 +7°C° 0.2 mm 9 m/S 748 mmHg 77%
    09:00 +8°C° 0.2 mm 9 m/S 748 mmHg 75%
    10:00 +9°C° 0.3 mm 10 m/S 749 mmHg 75%
    11:00 +9°C° 0.3 mm 10 m/S 749 mmHg 75%
    12:00 +11°C° 0.3 mm 10 m/S 750 mmHg 75%
    13:00 +11°C° 0.1 mm 10 m/S 751 mmHg 72%
    14:00 +12°C° 0.1 mm 9 m/S 751 mmHg 70%
    15:00 +12°C° 0.1 mm 9 m/S 752 mmHg 67%
    16:00 +11°C° 0 mm 8 m/S 753 mmHg 69%
    17:00 +10°C° 0 mm 6 m/S 753 mmHg 72%
    18:00 +10°C° 0 mm 5 m/S 754 mmHg 74%
    19:00 +10°C° 0 mm 4 m/S 755 mmHg 77%
    20:00 +8°C° 0 mm 4 m/S 756 mmHg 79%
    21:00 +7°C° 0 mm 4 m/S 756 mmHg 82%
    22:00 +7°C° 0 mm 4 m/S 757 mmHg 83%
    23:00 +8°C° 0 mm 3 m/S 757 mmHg 84%

    22 September, Samstag

    Zeit Temperatur Niederschläge Wind Luftdruck Luftfeuchtigkeit
    00:00 +7°C° 0 mm 3 m/S 758 mmHg 86%
    01:00 +7°C° 0 mm 3 m/S 758 mmHg 86%
    02:00 +7°C° 0 mm 3 m/S 758 mmHg 86%
    03:00 +7°C° 0 mm 3 m/S 759 mmHg 87%
    04:00 +7°C° 0 mm 3 m/S 759 mmHg 87%
    05:00 +5°C° 0 mm 3 m/S 759 mmHg 88%
    06:00 +5°C° 0 mm 3 m/S 760 mmHg 89%
    07:00 +8°C° 0 mm 3 m/S 760 mmHg 82%
    08:00 +8°C° 0 mm 4 m/S 760 mmHg 76%
    09:00 +11°C° 0 mm 4 m/S 761 mmHg 70%
    10:00 +12°C° 0 mm 4 m/S 761 mmHg 67%
    11:00 +12°C° 0 mm 4 m/S 761 mmHg 64%
    12:00 +13°C° 0 mm 4 m/S 761 mmHg 60%
    13:00 +13°C° 0 mm 4 m/S 761 mmHg 61%
    14:00 +13°C° 0 mm 3 m/S 760 mmHg 61%
    15:00 +13°C° 0 mm 3 m/S 760 mmHg 61%
    16:00 +13°C° 0 mm 2 m/S 760 mmHg 65%
    17:00 +12°C° 0 mm 1 m/S 760 mmHg 70%
    18:00 +11°C° 0 mm 1 m/S 760 mmHg 74%
    19:00 +11°C° 0.8 mm 1 m/S 759 mmHg 78%
    20:00 +11°C° 0.8 mm 1 m/S 759 mmHg 83%
    21:00 +10°C° 0.8 mm 1 m/S 759 mmHg 87%
    22:00 +9°C° 2 mm 3 m/S 757 mmHg 89%
    23:00 +8°C° 2 mm 4 m/S 756 mmHg 92%

    23 September, Sonntag

    Zeit Temperatur Niederschläge Wind Luftdruck Luftfeuchtigkeit
    00:00 +8°C° 2 mm 5 m/S 754 mmHg 94%
    01:00 +8°C° 1.8 mm 7 m/S 752 mmHg 94%
    02:00 +9°C° 1.8 mm 8 m/S 750 mmHg 94%
    03:00 +8°C° 1.8 mm 9 m/S 747 mmHg 93%
    04:00 +11°C° 0.8 mm 9 m/S 745 mmHg 94%
    05:00 +13°C° 0.8 mm 8 m/S 743 mmHg 95%
    06:00 +15°C° 0.8 mm 8 m/S 741 mmHg 96%
    07:00 +16°C° 1.2 mm 9 m/S 738 mmHg 93%
    08:00 +16°C° 1.2 mm 10 m/S 735 mmHg 91%
    09:00 +17°C° 1.2 mm 11 m/S 733 mmHg 88%
    10:00 +16°C° 0.6 mm 10 m/S 732 mmHg 88%
    11:00 +15°C° 0.6 mm 9 m/S 731 mmHg 88%
    12:00 +13°C° 0.6 mm 9 m/S 730 mmHg 89%
    13:00 +12°C° 0.5 mm 11 m/S 732 mmHg 88%
    14:00 +10°C° 0.5 mm 13 m/S 734 mmHg 86%
    15:00 +10°C° 0.5 mm 15 m/S 736 mmHg 85%
    16:00 +9°C° 0.3 mm 15 m/S 740 mmHg 82%
    17:00 +8°C° 0.3 mm 14 m/S 744 mmHg 79%
    18:00 +6°C° 0.3 mm 14 m/S 748 mmHg 76%
    19:00 +7°C° 0 mm 13 m/S 751 mmHg 73%
    20:00 +7°C° 0 mm 11 m/S 754 mmHg 70%
    21:00 +7°C° 0 mm 9 m/S 757 mmHg 67%
    22:00 +6°C° 0 mm 8 m/S 759 mmHg 66%
    23:00 +6°C° 0 mm 7 m/S 760 mmHg 65%

    24 September, Montag

    Zeit Temperatur Niederschläge Wind Luftdruck Luftfeuchtigkeit
    00:00 +5°C° 0 mm 6 m/S 762 mmHg 64%
    01:00 +6°C° 0 mm 5 m/S 763 mmHg 65%
    02:00 +6°C° 0 mm 5 m/S 764 mmHg 65%
    03:00 +5°C° 0 mm 4 m/S 765 mmHg 66%
    04:00 +5°C° 0 mm 4 m/S 766 mmHg 69%
    05:00 +5°C° 0 mm 3 m/S 767 mmHg 73%
    06:00 +4°C° 0 mm 3 m/S 768 mmHg 76%
    07:00 +7°C° 0 mm 3 m/S 769 mmHg 75%
    08:00 +9°C° 0 mm 3 m/S 769 mmHg 74%
    09:00 +10°C° 0 mm 4 m/S 770 mmHg 72%
    10:00 +11°C° 0.1 mm 4 m/S 770 mmHg 70%
    11:00 +12°C° 0.1 mm 4 m/S 771 mmHg 67%
    12:00 +13°C° 0.1 mm 4 m/S 771 mmHg 64%
    13:00 +13°C° 0 mm 4 m/S 771 mmHg 63%
    14:00 +13°C° 0 mm 4 m/S 771 mmHg 63%
    15:00 +13°C° 0 mm 4 m/S 771 mmHg 62%
    16:00 +12°C° 0 mm 3 m/S 771 mmHg 68%
    17:00 +11°C° 0 mm 3 m/S 771 mmHg 73%
    18:00 +9°C° 0 mm 2 m/S 771 mmHg 79%
    19:00 +8°C° 0 mm 2 m/S 772 mmHg 81%
    20:00 +8°C° 0 mm 2 m/S 772 mmHg 83%
    21:00 +7°C° 0 mm 2 m/S 772 mmHg 86%
    22:00 +6°C° 0 mm 2 m/S 772 mmHg 86%
    23:00 +6°C° 0 mm 2 m/S 772 mmHg 87%
    Mehr zeigen